DLH733L ZSPD-EDDF

Flight info

Callsign DLH733L
Flight time N/A
Altitude 34100
Route PIK83D PIKAS G330 PIMOL A593 DALIM W157 BEKDO/K0913S1070 W157 VYK G212 SOTMU/K0919S1040 B339 HUR/K0907S1100 B339 ASILA A575 UPREK W28 LAGEB W66 NUKTI B215 POVEK/K0902S1160 B215 KABDO W119 GOBOK A343 RULAD/K0891F380 M610 ARBOL Z621 GENDI N147 OTBOR/N0487F380 A480 TIMGA/N0484F400 B476 METKA L88 RASAM N199 EDATA M11 REBLO UM11 CRM UL746 ODERO DCT OPT DCT SOKRU DCT ARSIN DCT SUBEN DCT AKINI T161 DEBHI DEBHI1B
Aircraft A359/H-SDE2E3GHIJ3J4J5LM1ORWXY/LB1D1

Departure

Time N/A
Airport Shanghai Pudong International Airport (ZSPD)

Arrival

Time 2026-05-06 05:45
Airport Frankfurt Main Airport (EDDF)
Time Latitude Longitude Altitude Speed Heading
2026-05-06 03:47 44.67507 26.31154 36142 ft 470 kts 297°
2026-05-06 03:47 44.68902 26.26901 36338 ft 471 kts 297°
2026-05-06 03:47 44.70256 26.22781 36722 ft 469 kts 297°
2026-05-06 03:47 44.71621 26.18625 37091 ft 468 kts 297°
2026-05-06 03:48 44.72981 26.14480 37417 ft 468 kts 297°
2026-05-06 03:48 44.74348 26.10312 37739 ft 467 kts 297°
2026-05-06 03:48 44.75704 26.06171 38046 ft 467 kts 297°
2026-05-06 03:48 44.77059 26.02026 38347 ft 467 kts 297°
2026-05-06 03:49 44.78418 25.97862 38650 ft 466 kts 296°
2026-05-06 03:49 44.79769 25.93712 38884 ft 466 kts 296°
2026-05-06 03:49 44.81117 25.89566 39103 ft 466 kts 296°
2026-05-06 03:49 44.82467 25.85411 39292 ft 466 kts 296°
2026-05-06 03:50 44.83816 25.81249 39497 ft 466 kts 296°
2026-05-06 03:50 44.85146 25.77140 39701 ft 466 kts 296°
2026-05-06 03:50 44.86491 25.72979 39894 ft 466 kts 296°
2026-05-06 03:50 44.87833 25.68820 40036 ft 468 kts 296°
2026-05-06 03:51 44.90523 25.60462 40049 ft 467 kts 296°
2026-05-06 03:51 44.93206 25.52097 40052 ft 467 kts 296°
2026-05-06 03:52 44.95878 25.43740 40052 ft 467 kts 296°
2026-05-06 03:52 44.98545 25.35376 40056 ft 466 kts 295°
2026-05-06 03:53 45.01272 25.27067 40054 ft 466 kts 297°
2026-05-06 03:53 45.04196 25.18883 40056 ft 466 kts 298°
2026-05-06 03:54 45.07105 25.10766 40054 ft 466 kts 298°
2026-05-06 03:54 45.09996 25.02558 40060 ft 466 kts 297°
2026-05-06 03:55 45.12865 24.94333 40063 ft 466 kts 297°
2026-05-06 03:55 45.15726 24.86093 40066 ft 466 kts 297°
2026-05-06 03:56 45.18585 24.77841 40071 ft 466 kts 297°
2026-05-06 03:56 45.21435 24.69591 40061 ft 466 kts 297°
2026-05-06 03:57 45.24259 24.61390 40067 ft 466 kts 297°
2026-05-06 03:57 45.27097 24.53124 40061 ft 466 kts 297°
2026-05-06 03:58 45.29925 24.44862 40063 ft 466 kts 297°
2026-05-06 03:58 45.32750 24.36583 40059 ft 465 kts 297°
2026-05-06 03:59 45.35567 24.28301 40059 ft 465 kts 296°
2026-05-06 03:59 45.38377 24.20013 40058 ft 465 kts 296°
2026-05-06 04:00 45.41186 24.11702 40055 ft 465 kts 296°
2026-05-06 04:00 45.43982 24.03404 40045 ft 465 kts 296°
2026-05-06 04:01 45.46758 23.95139 40045 ft 465 kts 296°
2026-05-06 04:01 45.49549 23.86806 40050 ft 465 kts 296°
2026-05-06 04:02 45.52332 23.78469 40039 ft 465 kts 296°
2026-05-06 04:02 45.55108 23.70125 40042 ft 466 kts 296°
2026-05-06 04:03 45.57869 23.61803 40045 ft 466 kts 296°
2026-05-06 04:03 45.60637 23.53430 40041 ft 466 kts 296°
2026-05-06 04:04 45.63401 23.45043 40036 ft 467 kts 296°
2026-05-06 04:04 45.66165 23.36631 40037 ft 467 kts 296°
2026-05-06 04:05 45.68910 23.28252 40035 ft 467 kts 296°
2026-05-06 04:05 45.71659 23.19826 40032 ft 467 kts 296°
2026-05-06 04:06 45.74402 23.11395 40029 ft 467 kts 296°
2026-05-06 04:06 45.77159 23.02896 40027 ft 468 kts 295°
2026-05-06 04:07 45.79874 22.94496 40024 ft 468 kts 295°
2026-05-06 04:07 45.82604 22.86025 40027 ft 467 kts 295°
2026-05-06 04:08 45.85324 22.77553 40025 ft 467 kts 295°
2026-05-06 04:08 45.88037 22.69077 40021 ft 467 kts 295°
2026-05-06 04:09 45.90289 22.62021 40023 ft 467 kts 295°
2026-05-06 04:09 45.92989 22.53535 40020 ft 466 kts 295°
2026-05-06 04:10 45.95677 22.45058 40018 ft 466 kts 295°
2026-05-06 04:10 45.98358 22.36573 40017 ft 465 kts 295°
2026-05-06 04:11 46.01011 22.28152 40018 ft 465 kts 295°
2026-05-06 04:11 46.03681 22.19652 40016 ft 465 kts 295°
2026-05-06 04:12 46.06338 22.11159 40015 ft 464 kts 295°
2026-05-06 04:12 46.08985 22.02674 40011 ft 464 kts 295°
2026-05-06 04:13 46.11627 21.94174 40012 ft 464 kts 294°
2026-05-06 04:13 46.14239 21.85744 40011 ft 464 kts 294°
2026-05-06 04:14 46.16867 21.77232 40006 ft 463 kts 294°
2026-05-06 04:14 46.19489 21.68712 40006 ft 463 kts 294°
2026-05-06 04:15 46.22085 21.60250 40000 ft 463 kts 294°
2026-05-06 04:15 46.24691 21.51724 39999 ft 463 kts 294°
2026-05-06 04:16 46.27288 21.43202 39996 ft 463 kts 294°
2026-05-06 04:16 46.29878 21.34671 39996 ft 463 kts 294°
2026-05-06 04:17 46.32462 21.26131 39995 ft 463 kts 294°
2026-05-06 04:17 46.35022 21.17642 39995 ft 463 kts 294°
2026-05-06 04:18 46.37595 21.09082 39995 ft 463 kts 294°
2026-05-06 04:18 46.40165 21.00502 39992 ft 463 kts 294°
2026-05-06 04:19 46.42710 20.91976 39995 ft 463 kts 293°
2026-05-06 04:19 46.45261 20.83402 39987 ft 463 kts 293°
2026-05-06 04:20 46.47808 20.74810 39989 ft 463 kts 293°
2026-05-06 04:20 46.50348 20.66211 39983 ft 463 kts 293°
2026-05-06 04:21 46.52868 20.57653 39978 ft 463 kts 293°
2026-05-06 04:21 46.55389 20.49059 39976 ft 462 kts 292°
2026-05-06 04:22 46.57899 20.40473 39979 ft 462 kts 292°
2026-05-06 04:23 46.61653 20.27575 39971 ft 462 kts 292°
2026-05-06 04:23 46.64149 20.18966 39970 ft 461 kts 292°
2026-05-06 04:24 46.66633 20.10361 39962 ft 461 kts 292°
2026-05-06 04:24 46.69116 20.01736 39956 ft 461 kts 292°
2026-05-06 04:25 46.71584 19.93127 39949 ft 461 kts 292°
2026-05-06 04:25 46.74049 19.84501 39944 ft 461 kts 292°
2026-05-06 04:26 46.76509 19.75862 39942 ft 460 kts 292°
2026-05-06 04:26 46.78947 19.67271 39942 ft 460 kts 291°
2026-05-06 04:27 46.81389 19.58634 39941 ft 460 kts 291°
2026-05-06 04:27 46.83822 19.49996 39940 ft 460 kts 291°
2026-05-06 04:28 46.86257 19.41324 39938 ft 460 kts 291°
2026-05-06 04:28 46.88662 19.32723 39940 ft 460 kts 291°
2026-05-06 04:29 46.91077 19.24057 39934 ft 459 kts 291°
2026-05-06 04:29 46.93482 19.15399 39933 ft 459 kts 291°
2026-05-06 04:30 46.95882 19.06726 39931 ft 459 kts 291°
2026-05-06 04:30 46.98279 18.98028 39928 ft 459 kts 291°
2026-05-06 04:31 47.00664 18.89346 39924 ft 459 kts 291°
2026-05-06 04:31 47.03028 18.80709 39925 ft 460 kts 291°
2026-05-06 04:32 47.05404 18.71996 39922 ft 460 kts 290°
2026-05-06 04:32 47.07772 18.63281 39921 ft 460 kts 290°
2026-05-06 04:33 47.10136 18.54545 39916 ft 460 kts 290°
2026-05-06 04:33 47.12491 18.45815 39917 ft 460 kts 290°
2026-05-06 04:34 47.14841 18.37071 39913 ft 460 kts 290°
2026-05-06 04:34 47.17171 18.28364 39912 ft 461 kts 290°
2026-05-06 04:35 47.19514 18.19579 39907 ft 461 kts 290°
2026-05-06 04:35 47.21848 18.10794 39907 ft 461 kts 290°
2026-05-06 04:36 47.24168 18.02031 39903 ft 461 kts 290°
2026-05-06 04:36 47.26488 17.93232 39901 ft 461 kts 290°
2026-05-06 04:37 47.28809 17.84397 39896 ft 461 kts 290°
2026-05-06 04:37 47.31117 17.75577 39890 ft 461 kts 290°
2026-05-06 04:38 47.33421 17.66744 39887 ft 462 kts 289°
2026-05-06 04:38 47.35717 17.57903 39883 ft 462 kts 289°
2026-05-06 04:39 47.37995 17.49099 39882 ft 462 kts 289°
2026-05-06 04:39 47.40280 17.40232 39885 ft 462 kts 289°
2026-05-06 04:40 47.42562 17.31344 39886 ft 462 kts 289°
2026-05-06 04:40 47.44840 17.22437 39887 ft 463 kts 289°
2026-05-06 04:41 47.47109 17.13529 39889 ft 463 kts 289°
2026-05-06 04:41 47.49355 17.04681 39887 ft 463 kts 289°
2026-05-06 04:42 47.51611 16.95756 39885 ft 463 kts 289°
2026-05-06 04:42 47.53861 16.86820 39884 ft 464 kts 289°
2026-05-06 04:43 47.56108 16.77860 39877 ft 464 kts 289°
2026-05-06 04:43 47.58402 16.68927 39882 ft 465 kts 290°
2026-05-06 04:44 47.60855 16.60044 39882 ft 465 kts 290°
2026-05-06 04:44 47.63308 16.51170 39884 ft 465 kts 290°
2026-05-06 04:45 47.65727 16.42280 39883 ft 465 kts 290°
2026-05-06 04:45 47.68113 16.33425 39881 ft 465 kts 290°
2026-05-06 04:46 47.70508 16.24494 39875 ft 465 kts 290°
2026-05-06 04:46 47.72902 16.15536 39878 ft 466 kts 290°
2026-05-06 04:47 47.75286 16.06583 39872 ft 466 kts 290°
2026-05-06 04:47 47.77650 15.97669 39879 ft 466 kts 289°
2026-05-06 04:48 47.80035 15.88642 39881 ft 466 kts 289°
2026-05-06 04:48 47.82387 15.79711 39869 ft 466 kts 289°
2026-05-06 04:49 47.84754 15.70686 39881 ft 467 kts 289°
2026-05-06 04:49 47.87108 15.61677 39877 ft 467 kts 289°
2026-05-06 04:50 47.89441 15.52709 39874 ft 466 kts 289°
2026-05-06 04:50 47.91779 15.43685 39876 ft 466 kts 289°
2026-05-06 04:51 47.94109 15.34659 39874 ft 466 kts 289°
2026-05-06 04:51 47.96432 15.25626 39874 ft 466 kts 289°
2026-05-06 04:52 47.98747 15.16588 39869 ft 466 kts 289°
2026-05-06 04:52 48.01038 15.07604 39873 ft 465 kts 289°
2026-05-06 04:53 48.03340 14.98547 39873 ft 465 kts 289°
2026-05-06 04:53 48.05631 14.89496 39870 ft 465 kts 288°
2026-05-06 04:54 48.07912 14.80451 39869 ft 465 kts 288°
2026-05-06 04:54 48.10172 14.71448 39865 ft 465 kts 288°
2026-05-06 04:55 48.12439 14.62384 39871 ft 465 kts 288°
2026-05-06 04:55 48.14699 14.53307 39867 ft 465 kts 288°
2026-05-06 04:56 48.16945 14.44256 39873 ft 465 kts 288°
2026-05-06 04:56 48.19207 14.35101 39854 ft 465 kts 288°
2026-05-06 04:57 48.21432 14.26055 39860 ft 465 kts 288°
2026-05-06 04:57 48.23668 14.16932 39858 ft 465 kts 288°
2026-05-06 04:58 48.25518 14.09356 39866 ft 465 kts 288°
2026-05-06 04:58 48.27739 14.00225 39855 ft 465 kts 288°
2026-05-06 04:59 48.29952 13.91088 39855 ft 465 kts 288°
2026-05-06 04:59 48.32155 13.81952 39859 ft 465 kts 288°
2026-05-06 05:00 48.34346 13.72831 39854 ft 465 kts 288°
2026-05-06 05:00 48.36535 13.63682 39856 ft 466 kts 287°
2026-05-06 05:01 48.38723 13.54502 39864 ft 466 kts 287°
2026-05-06 05:01 48.40904 13.45305 39877 ft 465 kts 287°
2026-05-06 05:02 48.43073 13.36124 39853 ft 465 kts 287°
2026-05-06 05:02 48.45310 13.26976 39856 ft 466 kts 289°
2026-05-06 05:03 48.47725 13.17991 39855 ft 466 kts 290°
2026-05-06 05:03 48.50166 13.08919 39853 ft 466 kts 289°
2026-05-06 05:04 48.52564 12.99837 39854 ft 465 kts 289°
2026-05-06 05:04 48.54937 12.90742 39854 ft 465 kts 289°
2026-05-06 05:05 48.57298 12.81649 39856 ft 465 kts 289°
2026-05-06 05:05 48.59655 12.72540 39855 ft 465 kts 289°
2026-05-06 05:06 48.62003 12.63429 39855 ft 465 kts 288°
2026-05-06 05:06 48.64331 12.54365 39853 ft 465 kts 288°
2026-05-06 05:07 48.66663 12.45249 39855 ft 465 kts 288°
2026-05-06 05:07 48.68995 12.36098 39855 ft 465 kts 288°
2026-05-06 05:08 48.71319 12.26937 39851 ft 465 kts 288°
2026-05-06 05:08 48.73632 12.17786 39851 ft 465 kts 288°
2026-05-06 05:09 48.75387 12.08420 39850 ft 461 kts 278°
2026-05-06 05:09 48.76487 11.98900 39841 ft 461 kts 277°
2026-05-06 05:10 48.77500 11.89332 39840 ft 461 kts 276°
2026-05-06 05:10 48.78515 11.79667 39836 ft 462 kts 276°
2026-05-06 05:11 48.79528 11.70046 39834 ft 462 kts 276°
2026-05-06 05:11 48.80539 11.60437 39830 ft 462 kts 276°
2026-05-06 05:12 48.81542 11.50801 39832 ft 462 kts 276°
2026-05-06 05:12 48.82523 11.41209 39831 ft 462 kts 276°
2026-05-06 05:13 48.83560 11.31556 39826 ft 464 kts 279°
2026-05-06 05:13 48.85801 11.22323 39829 ft 471 kts 296°
2026-05-06 05:14 48.89803 11.14415 39181 ft 476 kts 311°
2026-05-06 05:14 48.92169 11.10945 38410 ft 482 kts 313°
2026-05-06 05:14 48.94658 11.07486 37499 ft 485 kts 314°
2026-05-06 05:14 48.97177 11.04051 36658 ft 487 kts 314°
2026-05-06 05:15 48.99703 11.00605 35844 ft 488 kts 314°
2026-05-06 05:15 49.02220 10.97139 35040 ft 488 kts 314°
2026-05-06 05:15 49.04736 10.93639 34207 ft 489 kts 313°
2026-05-06 05:15 49.07243 10.90127 33351 ft 489 kts 313°
2026-05-06 05:16 49.09749 10.86602 32407 ft 490 kts 313°
2026-05-06 05:16 49.12252 10.83068 31462 ft 490 kts 313°
2026-05-06 05:16 49.14755 10.79522 30520 ft 491 kts 313°
2026-05-06 05:16 49.17258 10.75966 29518 ft 492 kts 313°
2026-05-06 05:17 49.19765 10.72401 28522 ft 491 kts 313°
2026-05-06 05:17 49.22193 10.68782 27842 ft 483 kts 310°
2026-05-06 05:17 49.24499 10.65095 27184 ft 476 kts 310°
2026-05-06 05:17 49.26772 10.61446 26545 ft 471 kts 310°
2026-05-06 05:18 49.29032 10.57838 25895 ft 467 kts 310°
2026-05-06 05:18 49.31273 10.54274 25227 ft 463 kts 310°
2026-05-06 05:18 49.33475 10.50777 24579 ft 459 kts 310°
2026-05-06 05:18 49.35653 10.47236 24037 ft 452 kts 308°
2026-05-06 05:19 49.37565 10.43441 23467 ft 447 kts 302°
2026-05-06 05:19 49.39350 10.39541 22932 ft 445 kts 302°
2026-05-06 05:19 49.41123 10.35636 22469 ft 443 kts 302°
2026-05-06 05:19 49.42887 10.31753 22021 ft 441 kts 302°
2026-05-06 05:20 49.44616 10.27949 21580 ft 439 kts 302°
2026-05-06 05:20 49.46358 10.24115 21136 ft 436 kts 302°
2026-05-06 05:20 49.48088 10.20303 20697 ft 434 kts 302°
2026-05-06 05:20 49.49815 10.16493 20253 ft 432 kts 302°
2026-05-06 05:21 49.51529 10.12706 19803 ft 430 kts 302°
2026-05-06 05:21 49.53234 10.08933 19356 ft 428 kts 302°
2026-05-06 05:21 49.54932 10.05182 18936 ft 426 kts 302°
2026-05-06 05:21 49.56616 10.01446 18504 ft 424 kts 301°
2026-05-06 05:22 49.58287 9.97730 18070 ft 422 kts 301°
2026-05-06 05:22 49.59962 9.94012 17609 ft 419 kts 301°
2026-05-06 05:22 49.61618 9.90317 17172 ft 416 kts 301°
2026-05-06 05:22 49.63256 9.86658 16745 ft 413 kts 301°
2026-05-06 05:23 49.64863 9.83065 16324 ft 410 kts 301°
2026-05-06 05:23 49.66479 9.79446 15905 ft 407 kts 301°
2026-05-06 05:23 49.69675 9.72279 15095 ft 402 kts 301°
2026-05-06 05:24 49.71257 9.68726 14835 ft 400 kts 301°
2026-05-06 05:24 49.72825 9.65199 14563 ft 395 kts 301°
2026-05-06 05:24 49.74378 9.61705 13929 ft 392 kts 302°
2026-05-06 05:24 49.75920 9.58230 13467 ft 392 kts 302°
2026-05-06 05:25 49.77455 9.54757 13038 ft 391 kts 302°
2026-05-06 05:25 49.78967 9.51333 12643 ft 389 kts 302°
2026-05-06 05:25 49.80486 9.47895 12250 ft 387 kts 302°
2026-05-06 05:25 49.81998 9.44463 11854 ft 385 kts 302°
2026-05-06 05:26 49.83501 9.41050 11462 ft 382 kts 302°
2026-05-06 05:26 49.84995 9.37650 11074 ft 380 kts 302°
2026-05-06 05:26 49.86293 9.34101 10822 ft 376 kts 290°
2026-05-06 05:26 49.87135 9.30279 10776 ft 374 kts 284°
2026-05-06 05:27 49.87871 9.26409 10776 ft 373 kts 284°
2026-05-06 05:27 49.88596 9.22564 10575 ft 367 kts 284°
2026-05-06 05:27 49.89335 9.18892 10210 ft 356 kts 288°
2026-05-06 05:27 49.90591 9.15635 9835 ft 351 kts 308°
2026-05-06 05:28 49.92434 9.13221 9413 ft 340 kts 327°
2026-05-06 05:28 49.94461 9.11650 9099 ft 314 kts 333°
2026-05-06 05:28 49.96468 9.10610 8665 ft 300 kts 347°
2026-05-06 05:28 49.98557 9.10425 8241 ft 301 kts 357°
2026-05-06 05:29 50.00651 9.10495 7813 ft 300 kts 358°
2026-05-06 05:29 50.02729 9.10765 7373 ft 301 kts
2026-05-06 05:29 50.04639 9.12105 6959 ft 304 kts 35°
2026-05-06 05:29 50.06046 9.14519 6530 ft 303 kts 59°
2026-05-06 05:30 50.07027 9.17410 6057 ft 301 kts 64°
2026-05-06 05:30 50.07964 9.20290 5797 ft 293 kts 63°
2026-05-06 05:30 50.08867 9.23070 5770 ft 285 kts 64°
2026-05-06 05:30 50.09763 9.25829 5772 ft 286 kts 64°
2026-05-06 05:31 50.10659 9.28596 5772 ft 286 kts 64°
2026-05-06 05:31 50.11544 9.31331 5769 ft 286 kts 64°
2026-05-06 05:31 50.12441 9.34101 5676 ft 287 kts 64°
2026-05-06 05:31 50.13349 9.36858 5410 ft 285 kts 61°
2026-05-06 05:32 50.14595 9.39222 5152 ft 280 kts 40°
2026-05-06 05:32 50.16138 9.40972 5003 ft 267 kts 24°
2026-05-06 05:32 50.17858 9.41667 4992 ft 247 kts
2026-05-06 05:32 50.19513 9.41372 4995 ft 237 kts 339°
2026-05-06 05:33 50.20998 9.40317 4924 ft 234 kts 325°
2026-05-06 05:33 50.22078 9.38497 4796 ft 228 kts 294°
2026-05-06 05:33 50.22378 9.36132 4670 ft 223 kts 263°
2026-05-06 05:33 50.21868 9.33859 4564 ft 222 kts 240°
2026-05-06 05:34 50.21205 9.31672 4426 ft 223 kts 250°
2026-05-06 05:34 50.20718 9.29375 4299 ft 223 kts 252°
2026-05-06 05:34 50.20224 9.27088 4161 ft 222 kts 250°
2026-05-06 05:34 50.19710 9.24847 4039 ft 222 kts 250°
2026-05-06 05:35 50.19185 9.22591 3987 ft 222 kts 250°
2026-05-06 05:35 50.18656 9.20327 4043 ft 221 kts 250°
2026-05-06 05:35 50.18134 9.18095 3995 ft 215 kts 250°
2026-05-06 05:35 50.17622 9.15925 3985 ft 214 kts 250°
2026-05-06 05:36 50.17107 9.13746 3984 ft 214 kts 249°
2026-05-06 05:36 50.16590 9.11570 3981 ft 213 kts 249°
2026-05-06 05:36 50.16086 9.09458 3983 ft 201 kts 250°
2026-05-06 05:36 50.15618 9.07487 3986 ft 187 kts 250°
2026-05-06 05:37 50.15173 9.05613 3993 ft 183 kts 249°
2026-05-06 05:37 50.14732 9.03758 3991 ft 183 kts 250°
2026-05-06 05:37 50.14289 9.01895 3988 ft 183 kts 250°
2026-05-06 05:37 50.13854 9.00063 3979 ft 182 kts 250°
2026-05-06 05:38 50.13413 8.98207 3985 ft 183 kts 249°
2026-05-06 05:38 50.12969 8.96336 3986 ft 184 kts 250°
2026-05-06 05:38 50.12526 8.94470 3986 ft 183 kts 250°
2026-05-06 05:38 50.12084 8.92606 3986 ft 183 kts 250°
2026-05-06 05:39 50.11647 8.90764 3984 ft 177 kts 250°
2026-05-06 05:39 50.11222 8.88976 3995 ft 175 kts 250°
2026-05-06 05:39 50.10800 8.87200 3991 ft 175 kts 250°
2026-05-06 05:39 50.10377 8.85418 3967 ft 176 kts 250°
2026-05-06 05:40 50.09954 8.83636 3798 ft 175 kts 250°
2026-05-06 05:40 50.09534 8.81872 3554 ft 176 kts 250°
2026-05-06 05:40 50.09112 8.80097 3325 ft 174 kts 250°
2026-05-06 05:40 50.08690 8.78325 3055 ft 174 kts 250°
2026-05-06 05:41 50.08272 8.76570 2829 ft 170 kts 250°
2026-05-06 05:41 50.07874 8.74891 2595 ft 159 kts 249°
2026-05-06 05:41 50.07505 8.73344 2390 ft 146 kts 249°
2026-05-06 05:41 50.07171 8.71940 2199 ft 133 kts 249°
2026-05-06 05:42 50.06858 8.70626 2026 ft 123 kts 249°
2026-05-06 05:42 50.06573 8.69429 1869 ft 118 kts 249°
2026-05-06 05:42 50.06288 8.68226 1717 ft 117 kts 247°
2026-05-06 05:42 50.06007 8.67050 1547 ft 117 kts 247°
2026-05-06 05:43 50.05730 8.65886 1370 ft 112 kts 247°
2026-05-06 05:43 50.05450 8.64645 1244 ft 129 kts 249°
2026-05-06 05:43 50.05163 8.63376 1100 ft 120 kts 248°
2026-05-06 05:43 50.04847 8.62073 854 ft 134 kts 244°
2026-05-06 05:44 50.04490 8.60756 646 ft 130 kts 243°
2026-05-06 05:44 50.04175 8.59415 518 ft 135 kts 246°
2026-05-06 05:44 50.03850 8.58053 388 ft 131 kts 246°
2026-05-06 05:44 50.03561 8.56877 363 ft 89 kts 250°
2026-05-06 05:45 50.03456 8.56404 360 ft 1 kts 251°
2026-05-06 05:45 50.03437 8.56291 363 ft 23 kts 259°
2026-05-06 05:45 50.03432 8.56045 361 ft 19 kts 276°
2026-05-06 05:45 50.03466 8.55946 358 ft 10 kts 335°
2026-05-06 05:46 50.03524 8.55965 360 ft 8 kts 27°
2026-05-06 05:46 50.03556 8.55998 363 ft 10 kts 36°
2026-05-06 05:46 50.03625 8.56095 365 ft 14 kts 50°
2026-05-06 05:46 50.03691 8.56290 363 ft 17 kts 69°
2026-05-06 05:47 50.03734 8.56479 366 ft 18 kts 70°
2026-05-06 05:47 50.03764 8.56605 363 ft 20 kts 69°
2026-05-06 05:47 50.03815 8.56814 367 ft 22 kts 69°
2026-05-06 05:47 50.03871 8.57045 367 ft 23 kts 69°
2026-05-06 05:48 50.03925 8.57273 371 ft 23 kts 70°
2026-05-06 05:48 50.03980 8.57503 375 ft 20 kts 70°
2026-05-06 05:48 50.04024 8.57686 376 ft 15 kts 69°
2026-05-06 05:48 50.04066 8.57797 375 ft 11 kts 36°
2026-05-06 05:49 50.04154 8.57792 374 ft 15 kts 341°
2026-05-06 05:49 50.04271 8.57723 369 ft 20 kts 339°
2026-05-06 05:49 50.04331 8.57688 372 ft 7 kts 339°
2026-05-06 05:49 50.04381 8.57656 374 ft 7 kts 336°
2026-05-06 05:50 50.04438 8.57612 374 ft 11 kts 332°
2026-05-06 05:50 50.04504 8.57558 371 ft 0 kts 333°
2026-05-06 05:50 50.04531 8.57537 373 ft 9 kts 333°
2026-05-06 05:50 50.04558 8.57513 370 ft 3 kts 327°
2026-05-06 05:51 50.04591 8.57431 367 ft 12 kts 291°
2026-05-06 05:51 50.04615 8.57352 367 ft 0 kts 297°
2026-05-06 05:51 50.04620 8.57335 364 ft 5 kts 296°
2026-05-06 05:51 50.04643 8.57270 367 ft 6 kts 298°
2026-05-06 05:52 50.04643 8.57268 364 ft 1 kts 298°
2026-05-06 05:52 50.04647 8.57258 362 ft 0 kts 300°